GFSNE_250_spd_159.txt.gz
Wind_Speed
113 105 96 89 83 80 77 74 71 71 72 66 64 63 62 68 76 81 89 102 107 110 116 118 123 122 118 110 104 100 94 95 90 87 82 76 76 75
99 94 86 82 79 76 74 72 70 68 71 66 64 60 62 65 73 79 84 91 106 113 112 118 122 128 128 124 113 106 102 102 99 90 84 83 83 84
89 83 79 73 70 70 69 67 68 67 67 65 62 60 60 62 66 75 77 85 96 112 117 116 122 128 132 129 127 119 113 105 105 98 94 95 92 89
78 74 70 66 63 62 61 61 61 63 63 62 61 60 57 58 60 68 74 81 89 103 114 116 120 128 134 136 133 129 122 118 113 110 104 101 103 100
70 67 62 60 57 56 56 54 54 56 57 59 58 58 57 56 58 65 70 78 86 95 107 112 118 124 132 135 139 138 133 128 122 118 113 110 107 110
64 61 57 54 53 52 53 51 50 51 51 54 54 54 53 54 56 64 71 77 84 91 99 110 116 120 127 133 135 133 141 141 135 125 120 118 115 114
59 55 51 50 49 49 49 49 48 47 47 49 49 50 52 53 55 59 67 73 78 81 89 99 112 118 122 128 134 136 134 136 143 138 134 126 123 119
53 49 48 48 48 47 47 46 46 45 44 43 44 47 48 50 52 55 58 63 70 75 81 88 96 104 117 121 127 132 136 136 135 142 142 140 134 127
48 47 46 44 44 44 43 43 42 42 40 41 40 42 44 44 47 49 53 57 63 67 73 78 85 92 99 110 122 129 133 136 138 136 139 139 140 138
45 45 44 42 41 41 40 40 40 39 37 38 39 39 40 43 44 46 48 52 54 59 63 67 75 82 88 94 103 117 126 132 137 140 141 139 143 145
43 42 40 39 37 35 34 36 37 36 35 36 38 39 39 42 45 46 48 50 51 53 56 61 67 72 77 83 90 98 110 121 133 137 141 142 142 142
39 38 36 34 32 32 30 29 32 32 32 35 36 37 39 41 44 47 48 49 50 50 51 54 61 66 70 74 80 86 93 102 115 128 135 141 144 144
35 32 32 34 33 29 28 26 27 27 29 33 33 35 37 39 43 46 46 47 49 49 49 51 55 59 64 68 72 77 82 88 95 104 116 128 139 144
32 30 31 31 31 27 25 24 24 25 27 30 32 34 35 38 42 44 46 47 48 49 51 52 54 56 59 62 66 71 76 81 87 92 98 105 117 128
31 31 30 30 29 25 23 21 22 25 27 30 32 32 34 38 41 44 46 48 49 51 53 55 55 56 58 60 62 66 70 75 81 87 92 97 101 107
32 30 30 30 29 26 23 22 21 24 28 31 34 34 36 39 43 46 48 50 53 55 57 58 59 59 60 61 63 65 68 71 76 80 85 91 97 102
35 33 32 31 29 26 25 24 23 24 28 32 35 36 38 40 43 46 49 52 54 57 58 59 61 62 63 64 65 67 69 72 73 77 81 85 89 94
36 36 35 34 32 30 28 27 26 27 29 33 38 41 44 45 46 49 51 53 56 58 59 61 62 64 66 68 69 70 72 74 77 78 80 84 88 91
38 38 39 40 37 36 35 35 34 34 35 36 39 42 47 52 54 57 59 60 61 62 63 65 66 67 68 71 73 75 77 78 80 82 84 85 88 90
43 43 44 44 43 43 43 43 42 43 44 45 47 49 51 53 56 59 61 63 65 67 69 70 71 72 72 72 74 76 79 80 82 84 87 90 91 92
50 50 49 49 50 50 50 50 51 52 52 53 54 56 58 61 64 66 68 69 71 71 71 71 71 71 72 73 74 76 78 81 82 84 86 89 91 92
55 56 56 56 57 57 58 58 59 58 59 59 60 61 63 66 68 71 73 74 75 75 76 76 75 75 75 74 75 76 78 80 82 85 87 89 90 92
58 59 60 61 62 63 63 64 64 65 65 65 66 67 68 69 71 72 72 73 74 74 74 74 75 75 76 76 77 77 77 79 80 83 85 88 91 92

GFSNE_250_spd_165.txt.gz
Wind_Speed
120 121 120 114 107 106 104 107 103 101 91 75 69 66 62 65 63 59 63 68 73 79 84 89 91 97 99 106 123 129 121 117 111 105 100 95 83 87
119 117 114 106 103 102 99 97 95 94 87 76 70 63 59 59 60 53 56 63 69 76 78 82 85 88 95 104 115 128 130 122 120 113 106 102 98 91
117 110 105 102 98 95 91 91 91 86 79 73 65 55 55 58 52 50 52 60 66 71 76 80 81 83 90 100 109 126 136 132 125 122 114 111 108 102
107 104 97 93 91 85 84 86 83 73 67 64 57 54 56 57 49 50 51 56 62 67 72 78 79 81 86 95 105 124 132 139 134 127 124 118 112 110
98 94 89 84 80 76 78 74 69 63 58 56 52 51 53 48 46 48 50 53 57 63 69 75 79 81 86 89 101 116 133 141 140 133 129 125 121 115
90 86 79 76 72 71 68 64 60 57 53 52 49 50 48 46 44 45 48 49 54 58 65 72 75 81 85 89 99 108 127 140 144 140 134 132 128 122
84 79 74 70 67 64 60 57 56 53 49 49 49 49 47 44 44 40 43 48 50 55 61 68 73 78 84 90 91 108 120 131 142 145 140 137 134 131
78 76 71 67 61 58 55 53 52 48 47 46 46 45 45 42 40 40 41 45 47 52 58 61 70 76 82 86 92 98 111 130 141 147 148 143 140 137
73 72 67 63 59 55 52 49 46 46 46 45 45 42 41 38 39 38 39 42 44 49 54 59 65 72 78 83 86 92 106 120 132 143 151 149 145 140
75 67 62 59 55 52 47 44 42 44 44 41 40 39 37 35 35 37 38 39 43 47 51 55 60 67 71 79 83 87 93 105 126 134 147 151 148 145
67 62 58 56 50 48 43 40 40 41 40 38 38 38 35 33 32 35 36 37 40 45 48 52 57 61 66 72 78 82 84 92 105 129 137 146 151 151
61 58 54 51 47 43 39 38 38 38 37 34 32 34 32 30 29 31 33 34 36 41 44 48 52 56 58 64 70 75 80 84 92 102 129 136 144 151
55 53 49 46 43 40 37 36 37 35 33 32 28 27 27 26 27 28 30 31 34 36 40 43 47 51 55 58 62 68 73 76 82 90 101 126 137 142
51 48 46 43 41 38 36 35 35 34 31 29 26 24 22 22 23 25 27 29 31 34 37 41 44 47 50 54 58 61 66 72 76 81 90 101 121 136
48 45 42 40 39 37 36 35 35 34 33 29 25 22 21 20 21 24 28 30 31 33 36 40 44 48 50 53 55 58 62 66 71 77 82 86 97 113
46 44 41 39 39 37 37 37 36 35 33 31 27 24 21 22 24 26 29 30 32 33 36 39 44 48 52 54 57 59 61 64 68 72 78 82 87 93
43 42 40 39 39 39 37 38 39 39 36 33 31 29 27 25 28 31 33 33 35 36 37 40 43 48 51 55 58 60 63 66 68 71 74 78 83 89
40 39 39 39 39 41 40 40 42 43 41 37 35 35 34 33 32 33 38 40 41 42 42 44 46 48 52 56 58 61 64 68 71 74 76 79 83 87
38 38 38 40 41 42 44 46 46 46 46 44 42 41 41 42 40 41 42 43 46 49 51 51 53 54 56 58 61 64 66 70 72 75 78 81 85 89
36 36 38 41 43 45 47 48 49 50 50 50 50 50 49 49 49 49 51 52 53 55 56 58 59 61 64 65 66 67 70 71 75 78 80 82 85 88
37 38 40 42 45 48 50 51 53 54 54 55 55 56 56 56 57 58 59 60 61 63 65 66 67 68 69 70 73 74 75 76 76 78 81 83 86 89
40 41 43 44 47 49 52 54 56 57 58 58 58 59 60 60 61 62 63 65 67 68 70 72 74 75 76 77 78 77 77 77 79 80 81 81 82 85
42 44 46 48 50 52 54 56 58 59 60 61 61 61 62 63 63 64 64 66 68 71 73 75 78 79 80 80 80 80 79 79 78 77 78 79 82 85

GFSNE_250_spd_168.txt.gz
Wind_Speed
118 121 126 114 116 115 112 106 101 101 98 93 91 91 91 88 80 73 70 65 64 68 74 79 85 90 107 117 115 115 116 126 129 128 122 116 110 105
118 119 116 116 116 107 100 98 99 96 91 90 87 87 83 79 71 66 62 61 60 63 67 76 83 86 93 101 112 112 114 118 130 133 129 123 115 111
117 112 115 110 103 101 98 94 92 87 87 87 85 81 76 71 66 62 61 58 57 59 63 69 77 83 87 91 95 101 108 114 122 133 135 128 121 117
110 105 104 99 98 98 97 90 84 81 82 83 80 75 70 64 60 58 58 57 55 56 58 62 70 77 83 86 89 92 99 109 116 122 136 135 129 121
97 97 95 97 98 95 90 84 79 75 75 75 71 66 61 58 54 54 53 52 52 52 54 57 64 71 77 81 84 85 89 101 109 116 126 143 138 128
98 96 96 95 94 89 84 73 68 67 67 64 62 57 55 54 51 50 49 48 49 49 52 54 59 66 71 75 78 81 83 91 100 110 121 137 143 136
91 93 92 90 87 82 71 64 62 62 59 58 56 51 52 51 50 47 46 44 45 48 51 52 55 63 67 71 75 79 81 85 91 102 114 126 145 144
89 88 84 80 78 68 66 63 60 58 56 54 50 50 50 47 44 44 44 42 43 45 48 51 52 57 65 69 72 75 78 81 85 94 105 127 137 145
85 81 79 75 71 67 64 59 57 54 52 50 47 48 48 45 41 39 40 39 41 43 45 50 50 52 58 66 71 73 76 80 83 91 101 120 134 146
81 78 76 73 68 65 60 56 54 51 49 45 46 46 44 42 41 38 36 36 38 39 42 48 49 48 54 59 66 71 73 77 82 86 93 105 126 138
74 72 70 67 64 60 57 54 52 48 46 42 44 43 42 41 38 35 33 33 35 36 39 43 45 45 49 54 59 66 71 74 79 82 87 94 115 127
71 69 65 62 58 56 53 50 49 46 42 40 41 39 40 39 36 32 29 30 32 34 36 38 40 42 45 50 54 60 65 71 74 77 80 86 96 111
68 65 62 57 54 54 50 48 46 43 40 39 39 36 36 35 32 29 26 27 29 30 32 34 36 39 41 45 50 55 60 64 70 74 76 79 86 95
61 60 57 54 53 51 48 46 44 41 38 38 38 35 32 32 28 25 24 23 25 27 29 31 34 36 40 42 46 50 55 60 63 69 73 75 78 86
55 55 53 51 50 49 46 44 42 40 39 38 38 35 33 28 27 24 22 22 23 26 28 30 32 34 38 40 43 47 51 55 59 61 66 70 73 79
51 50 49 48 47 45 43 42 41 40 39 39 39 37 34 32 28 25 25 25 27 29 29 30 31 33 36 40 43 46 49 52 57 61 64 67 71 74
47 46 45 44 44 43 41 41 41 40 41 41 42 40 36 33 33 32 29 29 31 33 34 34 34 36 37 40 43 47 50 52 54 57 62 66 69 72
41 42 42 42 42 40 39 39 41 42 43 45 44 43 40 37 37 37 37 36 35 37 39 40 41 41 42 43 45 47 51 54 57 59 62 66 69 71
36 37 38 39 39 38 38 40 41 42 44 47 47 47 47 45 45 43 43 43 44 43 44 46 46 47 49 50 51 52 54 56 61 64 66 68 70 73
36 36 36 37 37 37 37 39 41 43 45 48 49 50 51 51 50 51 51 50 51 51 51 53 54 55 56 57 58 59 60 62 64 66 68 71 74 76
36 36 37 38 39 39 40 40 42 44 46 49 51 52 53 55 56 56 57 57 58 59 59 61 61 62 64 66 67 67 67 68 69 71 71 73 74 77
39 39 40 40 41 42 44 45 46 47 49 50 52 54 55 56 58 58 59 60 62 63 65 66 68 69 71 72 73 74 74 75 74 74 74 75 77 80
38 39 40 42 43 45 46 47 49 50 52 52 53 56 57 57 58 59 59 61 63 64 66 68 70 72 73 75 76 77 77 78 78 76 75 76 78 79

GFSNE_250_spd_171.txt.gz
Wind_Speed
103 107 113 113 114 117 119 116 111 116 105 96 90 88 88 86 86 89 90 82 75 71 67 66 68 75 81 90 100 105 108 110 112 119 122 126 126 122
110 116 114 116 119 117 117 112 100 96 88 88 86 88 84 84 86 88 84 76 71 68 62 59 62 67 76 81 88 94 101 107 110 117 117 123 130 127
119 114 119 118 119 122 104 96 92 90 90 86 87 85 83 82 84 85 79 72 66 63 61 55 56 61 68 73 80 86 87 93 107 114 119 124 130 134
122 118 119 119 106 100 92 90 88 88 89 86 85 83 83 83 81 76 71 67 62 60 63 55 52 55 61 66 73 79 83 83 93 110 114 119 127 134
123 123 112 101 96 94 88 86 88 86 87 85 82 79 76 74 73 69 64 61 59 57 58 57 51 52 57 61 66 73 78 82 83 96 110 111 120 127
112 104 96 91 89 87 86 83 82 82 81 80 74 67 69 69 64 60 59 55 54 53 54 54 53 49 53 58 62 66 72 77 81 86 96 108 116 124
105 102 94 89 86 84 84 81 79 79 76 70 65 65 64 61 58 57 54 50 49 49 52 50 50 50 48 52 58 63 67 73 78 81 87 94 106 111
97 92 90 87 85 82 81 78 77 73 66 61 62 61 59 56 53 53 51 46 44 48 50 49 46 47 47 48 52 58 62 67 70 75 80 86 95 104
93 89 87 85 81 79 76 73 68 65 62 59 58 56 53 52 49 49 48 45 45 43 44 46 43 44 44 47 48 53 58 61 65 69 75 79 85 93
91 88 85 81 78 74 70 66 63 61 57 55 53 52 49 47 46 46 44 42 42 37 39 40 39 40 43 44 47 49 53 58 62 65 70 74 78 85
85 83 81 76 70 69 64 62 59 55 52 51 49 48 44 43 43 44 42 39 37 35 35 36 36 38 40 42 44 46 50 55 57 62 66 69 74 78
77 75 71 70 69 67 64 61 55 51 49 47 46 45 42 41 40 41 40 37 34 34 32 32 34 35 38 39 42 45 48 52 53 59 63 67 70 73
69 67 64 64 63 63 61 57 52 50 47 45 44 42 41 41 39 37 36 34 32 30 28 28 31 33 35 37 39 41 45 48 51 55 60 63 67 69
63 61 58 58 58 58 56 53 49 47 46 44 42 42 41 41 38 34 34 30 29 28 27 28 29 30 32 34 37 40 43 46 49 52 56 61 66 69
56 55 54 54 54 52 51 49 47 47 45 43 42 42 41 41 38 34 31 29 27 27 27 27 27 29 31 34 36 38 40 44 47 50 53 58 62 66
48 50 51 50 49 48 47 45 45 45 44 43 42 42 42 42 41 36 32 30 30 28 30 30 30 31 33 34 36 36 39 41 44 47 51 55 59 63
44 45 45 46 45 44 43 44 43 42 43 43 43 42 43 44 44 40 36 34 33 33 32 33 35 36 36 35 36 37 38 41 43 45 48 52 56 59
39 39 39 39 39 39 39 39 39 39 40 42 42 43 45 46 46 44 41 39 39 38 37 37 38 38 40 41 41 40 40 42 44 47 49 51 54 58
34 35 36 35 35 36 37 37 37 37 38 40 42 43 45 47 48 48 47 45 43 44 45 44 44 44 45 44 45 46 47 47 48 48 51 54 57 59
35 36 36 37 37 38 39 39 38 38 39 40 40 42 44 47 49 51 51 52 51 49 50 51 51 51 52 52 52 53 53 53 54 55 56 57 59 61
36 36 38 39 39 40 41 42 42 42 42 43 43 43 46 47 50 53 53 54 56 56 56 56 57 58 59 60 61 61 61 61 62 62 63 63 65 66
33 34 36 37 38 39 40 41 41 42 43 45 47 47 49 50 51 53 55 56 57 58 59 60 61 62 63 64 65 66 67 68 68 68 68 70 71 72
32 33 35 37 39 40 41 41 42 43 43 44 46 47 48 49 51 52 53 55 56 57 59 60 62 63 65 67 68 69 70 71 72 72 73 74 73 73

GFSNE_250_spd_174.txt.gz
Wind_Speed
112 104 111 114 111 119 118 120 123 119 115 118 117 113 114 114 101 91 91 88 87 84 86 87 85 76 69 70 76 82 86 93 103 106 107 110 117 123
116 117 125 122 126 125 125 128 126 124 123 119 114 117 106 99 94 90 91 86 82 82 85 82 72 64 63 66 71 76 81 90 100 105 105 108 114 126
127 127 133 127 131 132 132 133 126 116 116 118 106 100 93 89 90 87 84 84 80 80 85 73 64 61 57 58 62 67 73 82 88 98 101 102 108 119
136 132 134 138 135 136 135 130 114 111 105 100 99 94 92 89 85 82 82 80 78 78 72 70 66 59 54 54 55 59 66 75 79 85 91 96 101 110
139 139 143 140 140 137 123 115 107 101 97 93 88 86 84 82 80 79 78 77 76 72 70 66 62 57 53 53 54 54 59 68 70 76 82 87 93 101
140 143 142 136 125 118 111 105 101 99 91 84 81 79 77 76 75 74 73 74 70 68 64 60 57 55 54 53 52 53 56 64 64 69 75 79 84 87
130 126 123 119 113 109 103 100 95 90 86 82 80 77 75 73 71 71 70 68 63 62 59 56 54 53 52 51 50 53 53 59 60 62 69 73 77 80
114 113 109 106 101 98 92 89 85 81 77 76 70 66 66 66 66 68 66 61 59 57 54 53 51 49 48 48 46 50 50 53 56 57 61 67 71 74
100 99 100 98 93 90 86 80 77 77 74 69 64 64 63 61 63 64 60 57 54 52 51 48 47 44 44 43 43 46 46 47 50 53 57 60 65 70
93 90 89 87 84 80 78 77 73 69 67 64 62 60 59 59 59 57 55 52 50 48 45 43 42 40 40 41 41 43 42 44 46 49 53 57 60 64
81 80 79 76 75 72 70 67 62 61 59 58 57 54 54 54 52 51 50 48 47 45 40 39 38 36 36 36 38 40 39 42 44 46 49 53 56 60
69 69 68 68 66 63 62 60 57 56 57 56 53 50 50 48 48 47 44 44 43 41 37 36 34 31 30 32 35 36 37 39 40 42 46 50 54 57
60 61 61 61 61 60 59 56 56 55 54 52 49 47 46 44 45 43 42 40 38 39 37 33 30 26 26 28 32 34 35 36 37 40 42 46 50 54
56 56 56 55 55 55 53 53 53 51 49 48 46 45 44 43 43 41 40 38 35 37 37 31 27 26 25 26 29 31 33 36 38 39 41 43 48 52
51 51 52 52 51 50 49 49 48 46 46 46 45 45 45 42 41 40 38 36 35 36 35 33 28 25 25 25 28 30 32 34 37 39 41 43 46 50
47 46 45 45 44 44 44 44 44 44 43 43 43 43 42 40 40 39 38 37 37 36 36 35 33 29 28 29 30 32 33 35 37 39 41 42 45 48
40 39 39 39 38 38 38 39 40 40 39 39 38 39 39 39 38 38 39 39 39 38 38 38 37 36 34 32 34 35 36 37 37 39 41 41 44 48
32 32 32 33 33 34 36 37 38 38 37 37 37 37 38 38 38 39 39 41 42 42 42 42 42 41 40 39 38 38 40 41 41 40 41 42 45 48
29 31 32 33 34 37 39 40 39 39 38 38 38 38 39 40 40 39 41 42 44 46 47 47 46 46 46 46 44 44 45 46 45 46 46 46 47 49
30 32 33 35 36 37 39 39 39 39 40 40 41 41 41 42 43 43 42 43 45 48 50 50 51 52 52 53 52 52 52 52 52 52 52 51 53 54
29 30 31 32 33 34 35 35 36 37 39 40 40 41 42 43 45 46 47 47 47 48 50 52 53 54 55 56 57 57 58 58 59 59 59 60 60 61
26 27 28 29 30 32 33 34 36 37 39 40 40 41 42 43 43 45 46 48 50 51 52 53 55 56 57 57 58 59 61 62 63 65 65 66 66 67
25 26 28 29 32 33 35 37 39 40 41 42 43 43 43 43 43 44 45 46 48 50 51 52 53 55 57 58 59 60 61 63 64 66 68 70 70 70